Hanford, CA

8:18 PM PST on November 19, 2019 (GMT -0800)
Hanford Municipal

Weather History for KHJO - October, 2019

Change the Weather History Date:

Wednesday, October 23, 2019

  Actual Average Record
Temperature  
Mean Temperature 66 °F 61 °F  
Max Temperature 85 °F 76 °F 87 °F (2008)
Min Temperature 47 °F 46 °F 40 °F (2012)
Degree Days  
Heating Degree Days 0    
Month to date heating degree days 48  
Since 1 July heating degree days 56  
Cooling Degree Days 1    
Month to date cooling degree days 19  
Year to date cooling degree days 2019  
Growing Degree Days 15 (Base 50)    
Moisture  
Dew Point 48 °F    
Average Humidity 64    
Maximum Humidity 100    
Minimum Humidity 27    
Precipitation  
Precipitation 0.00 in 0.01 in 0.00 in (2019)
Month to date precipitation T 0.26  
Year to date precipitation 7.63 7.23  
Snow  
Snow 0.00 in - - ()
Month to date snowfall 0.0  
Since 1 July snowfall 0.0  
Since 1 September snowfall 0.0  
Snow Depth 0.00 in    
Sea Level Pressure  
Sea Level Pressure 30.00 in    
Wind  
Wind Speed 2 mph (East)    
Max Wind Speed 12 mph    
Max Gust Speed 14 mph    
Visibility 6 miles    
Events      
T = Trace of Precipitation, MM = Missing Value Source: NWS Daily Summary

Daily Weather History Graph

Daily Weather History Graph

Search for Another Location

Airport or City:

Astronomy

Oct. 23, 2019 Rise Set
Actual Time 7:12 AM PDT 6:12 PM PDT
Civil Twilight 6:46 AM PDT 6:38 PM PDT
Nautical Twilight 6:16 AM PDT 7:08 PM PDT
Astronomical Twilight 5:46 AM PDT 7:38 PM PDT
Moon 1:49 AM PDT (10/23) 3:54 PM PDT (10/23)
Length of Visible Light 11h 52m
Length of Day
10h 59m
Waning Crescent, 25% of the Moon is Illuminated
Oct 23
Waning Crescent
Oct 27
New
Nov 4
First Quarter
Nov 12
Full
Nov 19
Last Quarter

Hourly Weather History & Observations

Time (PDT) Temp. Dew Point Humidity Pressure Visibility Wind Dir Wind Speed Gust Speed Precip Events Conditions
12:53 AM 54.0 °F 50.0 °F 86% 30.06 in 5.0 mi Calm Calm - N/A   Clear
1:53 AM 53.1 °F 48.9 °F 86% 30.05 in 5.0 mi Calm Calm - N/A   Clear
2:53 AM 51.1 °F 48.0 °F 89% 30.05 in 4.0 mi Calm Calm - N/A   Clear
3:53 AM 51.1 °F 48.0 °F 89% 30.03 in 4.0 mi East 3.5 mph - N/A   Clear
4:53 AM 50.0 °F 46.9 °F 89% 30.03 in 3.0 mi Calm Calm - N/A   Clear
5:53 AM 48.9 °F 48.0 °F 97% 30.04 in 3.0 mi East 3.5 mph - N/A   Clear
6:53 AM 48.9 °F 46.0 °F 90% 30.04 in 3.0 mi Calm Calm - N/A   Clear
7:04 AM 48.0 °F 46.0 °F 93% 30.03 in 2.5 mi ESE 3.5 mph - N/A   Clear
7:15 AM 48.0 °F 45.0 °F 89% 30.03 in 3.0 mi Calm Calm - N/A   Clear
7:25 AM 48.0 °F 46.0 °F 93% 30.03 in 2.0 mi Calm Calm - N/A   Clear
7:32 AM 46.9 °F 45.0 °F 93% 30.03 in 1.8 mi SE 3.5 mph - N/A   Clear
7:51 AM 50.0 °F 46.4 °F 87% 30.03 in 2.0 mi Calm Calm - N/A   Clear
7:53 AM 50.0 °F 46.9 °F 89% 30.04 in 2.0 mi ESE 3.5 mph - N/A   Clear
8:13 AM 53.1 °F 48.0 °F 83% 30.03 in 3.0 mi Calm Calm - N/A   Haze
9:53 AM 64.9 °F 50.0 °F 58% 30.04 in 6.0 mi Calm Calm - N/A   Haze
10:53 AM 72.0 °F 48.9 °F 44% 30.03 in 6.0 mi SW 3.5 mph - N/A   Haze
11:53 AM 78.1 °F 46.9 °F 33% 30.01 in 8.0 mi Variable 3.5 mph - N/A   Clear
12:53 PM 81.0 °F 46.9 °F 30% 29.99 in 10.0 mi North - - N/A   Clear
1:53 PM 82.0 °F 46.9 °F 29% 29.96 in 10.0 mi North - - N/A   Clear
2:53 PM 82.9 °F 46.9 °F 28% 29.94 in 10.0 mi NW 4.6 mph - N/A   Clear
3:53 PM 84.9 °F 46.9 °F 27% 29.92 in 10.0 mi Variable 4.6 mph - N/A   Clear
4:53 PM 82.9 °F 46.9 °F 28% 29.91 in 10.0 mi Calm Calm - N/A   Clear
5:53 PM 80.1 °F 48.9 °F 34% 29.91 in 10.0 mi NNE 3.5 mph - N/A   Clear
6:53 PM 68.0 °F 52.0 °F 56% 29.91 in 10.0 mi Calm Calm - N/A   Clear
7:53 PM 64.9 °F 51.1 °F 61% 29.92 in 10.0 mi Calm Calm - N/A   Clear
8:53 PM 63.0 °F 51.1 °F 65% 29.94 in 10.0 mi NNW 3.5 mph - N/A   Clear
9:53 PM 59.0 °F 51.1 °F 75% 29.94 in 10.0 mi Calm Calm - N/A   Clear
10:53 PM 57.0 °F 50.0 °F 77% 29.96 in 10.0 mi Calm Calm - N/A   Clear
11:53 PM 57.9 °F 51.1 °F 78% 29.96 in 10.0 mi ENE 4.6 mph - N/A   Clear